timestamp,wind_dir_avg,wind_spd_avg,wind_spd_max_dir,wind_spd_gust,battery_voltage,lat,long
2021-03-01 00:04:01+00:00,249.0,0.96,250.0,1.08,12.41,47.59359,-54.27349
2021-03-01 00:14:01+00:00,277.0,1.39,277.0,2.01,12.41,47.59359,-54.27349
2021-03-01 00:24:01+00:00,328.0,3.1,338.0,3.78,12.41,47.59359,-54.27349
2021-03-01 00:34:01+00:00,350.0,9.62,347.0,11.23,12.41,47.59359,-54.27349
2021-03-01 00:44:01+00:00,351.0,9.26,348.0,10.08,12.41,47.59359,-54.27349
2021-03-01 00:54:01+00:00,352.0,8.6,354.0,10.12,12.41,47.59359,-54.27349
2021-03-01 01:04:01+00:00,351.0,9.7,356.0,11.83,12.41,47.59359,-54.27349
2021-03-01 01:14:01+00:00,356.0,10.34,7.0,13.05,12.33,47.59359,-54.27349
2021-03-01 01:24:01+00:00,3.0,11.31,10.0,13.37,12.33,47.59359,-54.27349
2021-03-01 01:34:01+00:00,4.0,11.17,359.0,13.94,12.33,47.59359,-54.27349
2021-03-01 01:44:01+00:00,359.0,12.41,355.0,13.94,12.33,47.59359,-54.27349
2021-03-01 01:54:01+00:00,3.0,11.63,17.0,14.04,12.33,47.59359,-54.27349
2021-03-01 02:04:01+00:00,1.0,12.66,16.0,14.64,12.33,47.59359,-54.27349
2021-03-01 02:14:01+00:00,359.0,11.5,358.0,14.67,12.25,47.59359,-54.27349
2021-03-01 02:24:01+00:00,21.0,12.87,21.0,15.14,12.25,47.59359,-54.27349
2021-03-01 02:34:01+00:00,17.0,13.68,22.0,15.63,12.25,47.59359,-54.27349
2021-03-01 02:44:01+00:00,17.0,14.58,18.0,16.9,12.25,47.59359,-54.27349
2021-03-01 02:54:01+00:00,20.0,13.21,14.0,15.86,12.25,47.59359,-54.27349
2021-03-01 03:04:01+00:00,20.0,15.02,18.0,17.96,12.25,47.59359,-54.27349
2021-03-01 03:14:01+00:00,16.0,15.24,17.0,17.17,12.17,47.59359,-54.27349
2021-03-01 03:24:01+00:00,14.0,14.92,16.0,17.42,12.17,47.59359,-54.27349
2021-03-01 03:34:01+00:00,19.0,14.09,19.0,16.15,12.17,47.59359,-54.27349
2021-03-01 03:44:01+00:00,22.0,13.97,12.0,17.25,12.17,47.59359,-54.27349
2021-03-01 03:54:01+00:00,18.0,15.78,17.0,18.82,12.17,47.59359,-54.27349
2021-03-01 04:04:01+00:00,15.0,14.08,15.0,17.26,12.17,47.59359,-54.27349
2021-03-01 04:14:01+00:00,18.0,15.4,17.0,18.05,12.17,47.59359,-54.27349
2021-03-01 04:24:01+00:00,16.0,14.88,19.0,17.75,12.17,47.59359,-54.27349
2021-03-01 04:34:01+00:00,18.0,15.06,19.0,17.07,12.17,47.59359,-54.27349
2021-03-01 04:44:01+00:00,21.0,15.66,18.0,18.15,12.17,47.59359,-54.27349
2021-03-01 04:54:01+00:00,15.0,12.58,16.0,14.47,12.17,47.59359,-54.27349
2021-03-01 05:04:01+00:00,10.0,11.55,21.0,13.06,12.17,47.59359,-54.27349
2021-03-01 05:14:01+00:00,15.0,13.25,18.0,15.1,12.17,47.59359,-54.27349
2021-03-01 05:24:01+00:00,16.0,13.59,22.0,15.73,12.17,47.59359,-54.27349
2021-03-01 05:34:01+00:00,21.0,14.85,20.0,18.29,12.17,47.59359,-54.27349
2021-03-01 05:44:01+00:00,20.0,13.88,21.0,16.61,12.17,47.59359,-54.27349
2021-03-01 05:54:01+00:00,22.0,14.3,26.0,17.2,12.17,47.59359,-54.27349
2021-03-01 06:04:01+00:00,18.0,13.58,13.0,17.07,12.17,47.59359,-54.27349
2021-03-01 06:14:01+00:00,21.0,13.63,24.0,15.5,12.17,47.59359,-54.27349
2021-03-01 06:24:01+00:00,23.0,14.52,29.0,16.06,12.17,47.59359,-54.27349
2021-03-01 06:34:01+00:00,19.0,12.9,27.0,16.28,12.17,47.59359,-54.27349
2021-03-01 06:44:01+00:00,19.0,13.18,21.0,15.1,12.17,47.59359,-54.27349
2021-03-01 06:54:01+00:00,16.0,12.15,13.0,14.35,12.17,47.59359,-54.27349
2021-03-01 07:04:01+00:00,6.0,9.85,1.0,11.19,12.17,47.59359,-54.27349
2021-03-01 07:14:01+00:00,6.0,10.1,5.0,11.79,12.09,47.59359,-54.27349
2021-03-01 07:24:01+00:00,5.0,10.91,6.0,13.18,12.09,47.59359,-54.27349
2021-03-01 07:34:01+00:00,14.0,13.9,12.0,15.72,12.09,47.59359,-54.27349
2021-03-01 07:44:01+00:00,10.0,11.32,13.0,15.12,12.09,47.59359,-54.27349
2021-03-01 07:54:01+00:00,14.0,12.59,16.0,13.94,12.09,47.59359,-54.27349
2021-03-01 08:04:01+00:00,17.0,11.64,14.0,13.57,12.09,47.59359,-54.27349
2021-03-01 08:14:01+00:00,21.0,11.56,17.0,13.03,12.09,47.59359,-54.27349
2021-03-01 08:24:01+00:00,13.0,11.96,12.0,13.81,12.09,47.59359,-54.27349
2021-03-01 08:34:01+00:00,16.0,11.7,13.0,13.14,12.09,47.59359,-54.27349
2021-03-01 08:44:01+00:00,23.0,10.48,23.0,11.8,12.09,47.59359,-54.27349
2021-03-01 08:54:01+00:00,22.0,11.59,24.0,14.21,12.09,47.59359,-54.27349
2021-03-01 09:04:01+00:00,19.0,11.48,23.0,13.64,12.09,47.59359,-54.27349
2021-03-01 09:14:01+00:00,21.0,11.12,15.0,13.73,12.09,47.59359,-54.27349
2021-03-01 09:24:01+00:00,19.0,10.94,11.0,12.74,12.09,47.59359,-54.27349
2021-03-01 09:34:01+00:00,19.0,11.99,18.0,16.3,12.09,47.59359,-54.27349
2021-03-01 09:44:01+00:00,24.0,12.62,32.0,14.1,12.09,47.59359,-54.27349
2021-03-01 09:54:01+00:00,23.0,12.45,25.0,14.69,12.09,47.59359,-54.27349
2021-03-01 10:04:01+00:00,29.0,12.55,29.0,14.81,12.09,47.59359,-54.27349
2021-03-01 10:14:01+00:00,27.0,11.35,32.0,13.42,12.09,47.59359,-54.27349
2021-03-01 10:24:01+00:00,21.0,11.22,26.0,12.93,12.09,47.59359,-54.27349
2021-03-01 10:34:01+00:00,17.0,11.56,17.0,12.59,12.09,47.59359,-54.27349
2021-03-01 10:44:01+00:00,21.0,10.79,21.0,11.98,12.09,47.59359,-54.27349
2021-03-01 10:54:01+00:00,21.0,11.79,20.0,13.42,12.09,47.59359,-54.27349
2021-03-01 11:04:01+00:00,19.0,12.02,16.0,13.52,12.09,47.59359,-54.27349
2021-03-01 11:14:01+00:00,16.0,10.91,15.0,13.14,12.09,47.59359,-54.27349
2021-03-01 11:24:01+00:00,10.0,9.65,4.0,11.04,12.09,47.59359,-54.27349
2021-03-01 11:34:01+00:00,3.0,8.51,1.0,9.84,12.09,47.59359,-54.27349
2021-03-01 11:44:01+00:00,11.0,8.16,12.0,9.36,12.09,47.59359,-54.27349
2021-03-01 11:54:01+00:00,12.0,7.03,19.0,8.82,12.09,47.59359,-54.27349
2021-03-01 12:04:01+00:00,7.0,9.33,8.0,10.7,12.09,47.59359,-54.27349
2021-03-01 12:14:01+00:00,2.0,10.31,4.0,11.21,12.41,47.59359,-54.27349
2021-03-01 12:24:01+00:00,6.0,9.4,8.0,10.89,12.41,47.59359,-54.27349
2021-03-01 12:34:01+00:00,6.0,9.11,4.0,10.35,12.41,47.59359,-54.27349
2021-03-01 12:44:01+00:00,10.0,10.45,10.0,11.7,12.41,47.59359,-54.27349
2021-03-01 12:54:01+00:00,12.0,11.37,13.0,12.92,12.41,47.59359,-54.27349
2021-03-01 13:04:01+00:00,11.0,9.96,9.0,11.66,12.41,47.59359,-54.27349
2021-03-01 13:14:01+00:00,13.0,9.78,12.0,11.25,12.81,47.59359,-54.27349
2021-03-01 13:24:01+00:00,14.0,10.21,10.0,12.55,12.81,47.59359,-54.27349
2021-03-01 13:34:01+00:00,20.0,9.61,17.0,11.08,12.81,47.59359,-54.27349
2021-03-01 13:44:01+00:00,12.0,8.82,13.0,10.68,12.81,47.59359,-54.27349
2021-03-01 13:54:01+00:00,20.0,8.92,16.0,10.42,12.81,47.59359,-54.27349
2021-03-01 14:04:01+00:00,20.0,9.27,10.0,11.36,12.81,47.59359,-54.27349
2021-03-01 14:14:01+00:00,18.0,8.0,17.0,10.16,13.37,47.59359,-54.27349
2021-03-01 14:24:01+00:00,17.0,9.12,15.0,10.36,13.37,47.59359,-54.27349
2021-03-01 14:34:01+00:00,22.0,9.37,26.0,11.11,13.37,47.59359,-54.27349
2021-03-01 14:44:01+00:00,19.0,7.98,16.0,8.91,13.37,47.59359,-54.27349
2021-03-01 14:54:01+00:00,23.0,8.2,20.0,9.29,13.37,47.59359,-54.27349
2021-03-01 15:04:01+00:00,26.0,9.7,22.0,10.88,13.37,47.59359,-54.27349
2021-03-01 15:14:01+00:00,30.0,7.55,31.0,8.42,13.68,47.59359,-54.27349
2021-03-01 15:24:01+00:00,37.0,9.71,41.0,11.07,13.68,47.59359,-54.27349
2021-03-01 15:34:01+00:00,37.0,7.56,37.0,8.77,13.68,47.59359,-54.27349
2021-03-01 15:44:01+00:00,34.0,8.39,30.0,9.95,13.68,47.59359,-54.27349
2021-03-01 15:54:01+00:00,36.0,7.66,36.0,8.63,13.68,47.59359,-54.27349
2021-03-01 16:04:01+00:00,36.0,8.52,35.0,10.29,13.68,47.59359,-54.27349
2021-03-01 16:14:01+00:00,41.0,8.78,33.0,9.81,13.92,47.59359,-54.27349
2021-03-01 16:24:01+00:00,44.0,7.26,39.0,8.42,13.92,47.59359,-54.27349
2021-03-01 16:34:01+00:00,44.0,7.9,45.0,8.53,13.92,47.59359,-54.27349
2021-03-01 16:44:01+00:00,44.0,6.95,48.0,7.77,13.92,47.59359,-54.27349
2021-03-01 16:54:01+00:00,46.0,6.91,52.0,7.9,13.92,47.59359,-54.27349
2021-03-01 17:04:01+00:00,46.0,6.6,43.0,7.28,13.92,47.59359,-54.27349
2021-03-01 17:14:01+00:00,39.0,7.54,39.0,8.1,13.84,47.59359,-54.27349
2021-03-01 17:24:01+00:00,39.0,6.8,39.0,7.61,13.84,47.59359,-54.27349
2021-03-01 17:34:01+00:00,41.0,6.96,42.0,7.62,13.84,47.59359,-54.27349
2021-03-01 17:44:01+00:00,37.0,6.77,36.0,7.16,13.84,47.59359,-54.27349
2021-03-01 17:54:01+00:00,42.0,6.66,43.0,7.37,13.84,47.59359,-54.27349
2021-03-01 18:04:01+00:00,44.0,6.54,42.0,7.21,13.84,47.59359,-54.27349
2021-03-01 18:14:01+00:00,39.0,6.62,36.0,7.58,13.92,47.59359,-54.27349
2021-03-01 18:24:01+00:00,44.0,7.29,43.0,8.08,13.92,47.59359,-54.27349
2021-03-01 18:34:01+00:00,44.0,6.2,40.0,7.21,13.92,47.59359,-54.27349
2021-03-01 18:44:01+00:00,42.0,6.0,43.0,6.29,13.92,47.59359,-54.27349
2021-03-01 18:54:01+00:00,45.0,5.5,44.0,5.9,13.92,47.59359,-54.27349
2021-03-01 19:04:01+00:00,55.0,5.41,55.0,5.79,13.92,47.59359,-54.27349
2021-03-01 19:14:01+00:00,59.0,5.37,59.0,5.89,13.76,47.59359,-54.27349
2021-03-01 19:24:01+00:00,59.0,4.65,60.0,5.01,13.76,47.59359,-54.27349
2021-03-01 19:34:01+00:00,63.0,3.85,57.0,4.37,13.76,47.59359,-54.27349
2021-03-01 19:44:01+00:00,72.0,3.1,76.0,3.69,13.76,47.59359,-54.27349
2021-03-01 19:54:01+00:00,102.0,3.72,109.0,5.62,13.76,47.59359,-54.27349
2021-03-01 20:04:01+00:00,114.0,2.58,125.0,3.77,13.76,47.59359,-54.27349
2021-03-01 20:14:01+00:00,106.0,1.93,120.0,3.33,13.44,47.59359,-54.27349
2021-03-01 20:24:01+00:00,120.0,3.37,118.0,3.8,13.44,47.59359,-54.27349
2021-03-01 20:34:01+00:00,67.0,1.03,79.0,1.65,13.44,47.59359,-54.27349
2021-03-01 20:44:01+00:00,76.0,1.26,95.0,1.68,13.44,47.59359,-54.27349
2021-03-01 20:54:01+00:00,92.0,1.52,95.0,1.99,13.44,47.59359,-54.27349
2021-03-01 21:04:01+00:00,90.0,2.36,88.0,2.83,13.44,47.59359,-54.27349
2021-03-01 21:14:01+00:00,83.0,2.11,73.0,2.69,12.89,47.59359,-54.27349
2021-03-01 21:24:01+00:00,72.0,3.77,67.0,4.2,12.89,47.59359,-54.27349
2021-03-01 21:34:01+00:00,67.0,2.94,65.0,3.46,12.89,47.59359,-54.27349
2021-03-01 21:44:01+00:00,73.0,3.31,69.0,3.94,12.89,47.59359,-54.27349
2021-03-01 21:54:01+00:00,75.0,3.57,76.0,4.06,12.89,47.59359,-54.27349
2021-03-01 22:04:01+00:00,84.0,2.6,79.0,3.28,12.89,47.59359,-54.27349
2021-03-01 22:14:01+00:00,88.0,2.68,91.0,3.34,12.57,47.59359,-54.27349
2021-03-01 22:24:01+00:00,87.0,2.85,88.0,3.94,12.57,47.59359,-54.27349
2021-03-01 22:34:01+00:00,86.0,2.46,87.0,3.09,12.57,47.59359,-54.27349
2021-03-01 22:44:01+00:00,97.0,2.11,99.0,3.21,12.57,47.59359,-54.27349
2021-03-01 22:54:01+00:00,104.0,2.11,77.0,3.27,12.57,47.59359,-54.27349
2021-03-01 23:04:01+00:00,94.0,2.94,71.0,4.33,12.57,47.59359,-54.27349
2021-03-01 23:14:01+00:00,97.0,2.66,64.0,5.18,12.49,47.59359,-54.27349
2021-03-01 23:24:01+00:00,97.0,3.57,124.0,5.25,12.49,47.59359,-54.27349
2021-03-01 23:34:01+00:00,107.0,3.96,104.0,6.61,12.49,47.59359,-54.27349
2021-03-01 23:44:01+00:00,96.0,4.11,97.0,5.41,12.49,47.59359,-54.27349
2021-03-01 23:54:01+00:00,97.0,3.27,127.0,5.27,12.49,47.59359,-54.27349
